| time (UTC) | temp F | wind direction | speed MPH | gust MPH | rain 1hr in | rain 24hr in | rain mn in | humidity % | barometer mb |
| 20260901153108 | 84 | 0 | 1.0 | 5.0 | 0.00 | 0.09 | 0.03 | 86 | 1017.6 |
| 20260901151605 | 84 | 13 | 1.0 | 5.0 | 0.02 | 0.09 | 0.03 | 86 | 1017.7 |
| 20260901150117 | 84 | 0 | 0.0 | 4.0 | 0.02 | 0.09 | 0.03 | 88 | 1017.5 |
| 20260901144603 | 83 | 68 | 0.0 | 4.0 | 0.02 | 0.09 | 0.03 | 91 | 1017.5 |
| 20260901143102 | 82 | 0 | 0.0 | 6.0 | 0.02 | 0.09 | 0.03 | 90 | 1017.3 |
| 20260901141605 | 83 | 60 | 1.0 | 5.0 | 0.00 | 0.07 | 0.01 | 86 | 1017.4 |
| 20260901140106 | 84 | 0 | 2.0 | 5.0 | 0.00 | 0.07 | 0.01 | 85 | 1017.2 |
| 20260901134601 | 83 | 72 | 2.0 | 5.0 | 0.00 | 0.07 | 0.01 | 87 | 1017.0 |
| 20260901133104 | 83 | 0 | 1.0 | 4.0 | 0.00 | 0.07 | 0.01 | 91 | 1017.0 |
| 20260901131606 | 82 | 62 | 1.0 | 5.0 | 0.00 | 0.07 | 0.01 | 93 | 1017.2 |
| 20260901124606 | 80 | 0 | 0.0 | 3.0 | 0.00 | 0.07 | 0.01 | 96 | 1016.9 |
| 20260901123102 | 79 | 0 | 0.0 | 0.0 | 0.00 | 0.07 | 0.01 | 97 | 1016.7 |
| 20260901121610 | 78 | 0 | 0.0 | 3.0 | 0.00 | 0.07 | 0.01 | 98 | 1016.7 |
| 20260901120114 | 78 | 0 | 0.0 | 1.0 | 0.00 | 0.07 | 0.01 | 98 | 1016.4 |
| 20260901114609 | 77 | 0 | 0.0 | 2.0 | 0.00 | 0.07 | 0.01 | 98 | 1016.5 |
| 20260901113103 | 77 | 0 | 0.0 | 0.0 | 0.00 | 0.07 | 0.01 | 98 | 1016.4 |
| 20260901111604 | 76 | 0 | 0.0 | 0.0 | 0.00 | 0.07 | 0.01 | 99 | 1016.2 |
| 20260901110103 | 76 | 0 | 0.0 | 1.0 | 0.00 | 0.07 | 0.01 | 98 | 1016.0 |
| 20260901104605 | 76 | 0 | 0.0 | 0.0 | 0.00 | 0.07 | 0.01 | 98 | 1016.0 |
| 20260901103107 | 76 | 0 | 0.0 | 0.0 | 0.00 | 0.07 | 0.01 | 98 | 1016.0 |
| 20260901101604 | 76 | 0 | 0.0 | 0.0 | 0.00 | 0.07 | 0.01 | 98 | 1015.9 |
| 20260901100103 | 76 | 0 | 0.0 | 1.0 | 0.00 | 0.07 | 0.01 | 98 | 1015.8 |
| 20260901094604 | 76 | 0 | 0.0 | 1.0 | 0.01 | 0.07 | 0.01 | 98 | 1015.7 |
| 20260901093103 | 76 | 0 | 0.0 | 2.0 | 0.01 | 0.07 | 0.01 | 98 | 1015.7 |
| 20260901091620 | 76 | 0 | 0.0 | 3.0 | 0.01 | 0.07 | 0.01 | 98 | 1015.7 |
| 20260901090105 | 76 | 0 | 0.0 | 0.0 | 0.01 | 0.07 | 0.01 | 98 | 1015.4 |
| 20260901084608 | 76 | 0 | 0.0 | 0.0 | 0.00 | 0.06 | 0.00 | 98 | 1015.3 |
| 20260901083109 | 76 | 0 | 0.0 | 0.0 | 0.00 | 0.06 | 0.00 | 98 | 1015.3 |
| 20260901081602 | 76 | 0 | 0.0 | 1.0 | 0.00 | 0.06 | 0.00 | 98 | 1015.4 |
| 20260901080107 | 76 | 0 | 0.0 | 0.0 | 0.00 | 0.06 | 0.00 | 98 | 1015.4 |
| 20260901074605 | 76 | 0 | 0.0 | 0.0 | 0.00 | 0.06 | 0.00 | 98 | 1015.6 |
| 20260901073108 | 76 | 0 | 0.0 | 1.0 | 0.00 | 0.06 | 0.00 | 98 | 1015.6 |
| 20260901071602 | 76 | 0 | 0.0 | 0.0 | 0.00 | 0.06 | 0.00 | 97 | 1015.5 |
| 20260901064619 | 76 | 0 | 0.0 | 1.0 | 0.00 | 0.06 | 0.00 | 97 | 1016.0 |
| 20260901063103 | 76 | 0 | 0.0 | 1.0 | 0.00 | 0.06 | 0.00 | 97 | 1016.4 |
| 20260901061620 | 76 | 0 | 0.0 | 1.0 | 0.00 | 0.06 | 0.00 | 97 | 1016.8 |
| 20260901060118 | 76 | 0 | 0.0 | 1.0 | 0.00 | 0.06 | 0.00 | 97 | 1016.9 |
| 20260901054604 | 76 | 0 | 0.0 | 2.0 | 0.00 | 0.06 | 0.00 | 97 | 1017.0 |
| 20260901053106 | 76 | 0 | 0.0 | 1.0 | 0.00 | 0.06 | 0.00 | 96 | 1017.2 |
| 20260901051600 | 76 | 0 | 0.0 | 0.0 | 0.00 | 0.06 | 0.00 | 96 | 1017.4 |
| 20260901050105 | 76 | 0 | 0.0 | 1.0 | 0.00 | 0.06 | 0.00 | 96 | 1017.4 |
| 20260901044606 | 76 | 0 | 0.0 | 1.0 | 0.00 | 0.06 | 0.00 | 96 | 1017.5 |
| 20260901043105 | 76 | 327 | 0.0 | 0.0 | 0.00 | 0.06 | 0.00 | 96 | 1017.4 |
| 20260901041601 | 77 | 0 | 0.0 | 0.0 | 0.00 | 0.06 | 0.00 | 95 | 1017.6 |
| 20260901034602 | 78 | 0 | 0.0 | 1.0 | 0.00 | 0.06 | 0.06 | 95 | 1017.6 |
| 20260901033100 | 78 | 0 | 0.0 | 1.0 | 0.00 | 0.06 | 0.06 | 95 | 1017.5 |
| 20260901031600 | 78 | 0 | 0.0 | 0.0 | 0.00 | 0.06 | 0.06 | 95 | 1017.6 |
| 20260901024611 | 78 | 0 | 0.0 | 1.0 | 0.00 | 0.06 | 0.06 | 95 | 1017.6 |
| 20260901023100 | 78 | 0 | 0.0 | 0.0 | 0.00 | 0.06 | 0.06 | 95 | 1017.5 |
| 20260901021604 | 77 | 0 | 0.0 | 0.0 | 0.00 | 0.06 | 0.06 | 95 | 1017.4 |
| 20260901014606 | 78 | 0 | 0.0 | 0.0 | 0.00 | 0.06 | 0.06 | 95 | 1017.1 |
| 20260901013123 | 78 | 0 | 0.0 | 1.0 | 0.00 | 0.06 | 0.06 | 95 | 1016.9 |
| 20260901011600 | 78 | 0 | 0.0 | 0.0 | 0.00 | 0.06 | 0.06 | 95 | 1016.6 |
| 20260901010110 | 78 | 0 | 0.0 | 0.0 | 0.00 | 0.06 | 0.06 | 95 | 1016.4 |
| 20260901004610 | 78 | 0 | 0.0 | 0.0 | 0.00 | 0.06 | 0.06 | 95 | 1016.5 |
| 20260901003100 | 78 | 0 | 0.0 | 0.0 | 0.00 | 0.06 | 0.06 | 94 | 1016.6 |
| 20260901001605 | 78 | 0 | 0.0 | 0.0 | 0.00 | 0.06 | 0.06 | 95 | 1016.6 |
| 20260901000107 | 79 | 0 | 0.0 | 0.0 | 0.00 | 0.06 | 0.06 | 95 | 1016.6 |
| 20260831234634 | 79 | 0 | 0.0 | 0.0 | 0.00 | 0.06 | 0.06 | 94 | 1016.3 |
| 20260831233106 | 79 | 0 | 0.0 | 1.0 | 0.00 | 0.06 | 0.06 | 94 | 1016.3 |
| 20260831231604 | 79 | 0 | 0.0 | 1.0 | 0.00 | 0.06 | 0.06 | 94 | 1016.1 |
| 20260831230059 | 79 | 0 | 0.0 | 0.0 | 0.00 | 0.06 | 0.06 | 95 | 1016.1 |
| 20260831224602 | 78 | 0 | 0.0 | 0.0 | 0.00 | 0.06 | 0.06 | 95 | 1016.2 |
| 20260831223104 | 78 | 0 | 0.0 | 3.0 | 0.00 | 0.06 | 0.06 | 95 | 1016.3 |
| 20260831221603 | 78 | 45 | 0.0 | 3.0 | 0.00 | 0.06 | 0.06 | 94 | 1016.6 |
| 20260831220101 | 78 | 0 | 0.0 | 1.0 | 0.00 | 0.06 | 0.06 | 94 | 1016.6 |
| 20260831214618 | 77 | 92 | 1.0 | 4.0 | 0.00 | 0.06 | 0.06 | 94 | 1016.7 |
| 20260831213107 | 78 | 0 | 0.0 | 1.0 | 0.02 | 0.06 | 0.06 | 95 | 1017.0 |
| 20260831211559 | 78 | 0 | 0.0 | 0.0 | 0.05 | 0.06 | 0.06 | 95 | 1016.9 |
| 20260831210100 | 78 | 0 | 0.0 | 3.0 | 0.06 | 0.06 | 0.06 | 94 | 1016.8 |
| 20260831204608 | 78 | 0 | 0.0 | 7.0 | 0.06 | 0.06 | 0.06 | 94 | 1016.5 |
| 20260831203103 | 78 | 0 | 1.0 | 7.0 | 0.04 | 0.04 | 0.04 | 93 | 1016.6 |
| 20260831201622 | 80 | 92 | 2.0 | 9.0 | 0.01 | 0.01 | 0.01 | 88 | 1016.9 |
| 20260831200106 | 81 | 66 | 5.0 | 12.0 | 0.00 | 0.00 | 0.00 | 85 | 1016.9 |
| 20260831194602 | 83 | 93 | 3.0 | 14.0 | 0.00 | 0.00 | 0.00 | 82 | 1017.2 |
| 20260831193134 | 85 | 117 | 5.0 | 16.0 | 0.00 | 0.00 | 0.00 | 78 | 1017.1 |
| 20260831191602 | 86 | 51 | 8.0 | 14.0 | 0.00 | 0.00 | 0.00 | 75 | 1016.8 |
| 20260831190101 | 88 | 57 | 5.0 | 16.0 | 0.00 | 0.00 | 0.00 | 75 | 1016.5 |
| 20260831184605 | 88 | 31 | 6.0 | 10.0 | 0.00 | 0.00 | 0.00 | 66 | 1016.4 |
| 20260831183107 | 89 | 49 | 4.0 | 9.0 | 0.00 | 0.00 | 0.00 | 68 | 1016.6 |
| 20260831181614 | 90 | 39 | 1.0 | 7.0 | 0.00 | 0.00 | 0.00 | 74 | 1016.5 |
| 20260831180108 | 86 | 335 | 6.0 | 11.0 | 0.00 | 0.00 | 0.00 | 77 | 1016.8 |
| 20260831174609 | 88 | 314 | 7.0 | 12.0 | 0.00 | 0.00 | 0.00 | 73 | 1016.8 |
| 20260831173104 | 88 | 47 | 3.0 | 9.0 | 0.00 | 0.00 | 0.00 | 72 | 1017.0 |
| 20260831171604 | 91 | 0 | 3.0 | 5.0 | 0.00 | 0.00 | 0.00 | 67 | 1017.1 |
| 20260831170119 | 89 | 0 | 0.0 | 4.0 | 0.00 | 0.00 | 0.00 | 70 | 1017.3 |
| 20260831164613 | 88 | 0 | 0.0 | 6.0 | 0.00 | 0.00 | 0.00 | 73 | 1017.7 |
| 20260831163103 | 89 | 332 | 0.0 | 8.0 | 0.00 | 0.00 | 0.00 | 72 | 1017.7 |
| 20260831161611 | 89 | 1 | 1.0 | 5.0 | 0.00 | 0.00 | 0.00 | 71 | 1018.0 |
| 20260831160110 | 87 | 0 | 0.0 | 3.0 | 0.00 | 0.00 | 0.00 | 76 | 1018.1 |
| 20260831154624 | 87 | 0 | 0.0 | 1.0 | 0.00 | 0.00 | 0.00 | 77 | 1018.1 |